Voltar ao catálogo

STARLINK-32940

AtivoComunicaçõesVLEO
NORAD 63568·PAYLOAD·🇺🇸 United States

Lançado Apr 13, 2025 de Cape Canaveral Space Force Station

Loading…

Próximas Passagens (próximas 24 horas)

TLE

AtualizadoSource: CelesTrak SupGP

Época: Sep 15, 2026, 02:30 UTC

1 63568C 25075W   26258.10465278  .00005010  00000+0  18139-3 0  2581
2 63568  42.9998 280.8297 0001230 264.2601 204.2368 15.27590125    17

Acompanhe STARLINK-32940 em tempo real com AllMySat

Download on the App Store